Regional Weather Roundup
Issued by NWS

Home | Current Version | Previous Version | Text Only | Print | Product List | Glossary Off
Versions: 1 2 3 4 5 6 7 8 9 10 11 12 13 14 15 16 17 18 19 20 21 22 23 24 25 26 27 28 29 30 31 32 33 34 35 36 37 38 39 40 41 42 43 44 45 46 47 48 49 50

000
ASUS44 KMEG 091210
RWRTN
TENNESSEE HOURLY STATE WEATHER ROUNDUP
NATIONAL WEATHER SERVICE MEMPHIS TN
600 AM CST TUE FEB 09 2016

TNZ002-004-019-021-049-052-054-088>092-091300-
WEST TENNESSEE

CITY           SKY/WX    TMP DP  RH WIND       PRES   REMARKS
MEMPHIS INTL   MOCLDY    33  15  47 W20G29    29.95S WCI  21
NWS MEMPHIS      N/A     32 N/A N/A MISG        N/A
JACKSON        CLOUDY    27  19  72 NW10      29.94R WCI  17
DYERSBURG      CLOUDY    27  19  74 NW6       29.96S WCI  20
UNION CITY     CLOUDY    21  19  93 NW7       29.92R WCI  13
PARIS          CLOUDY    21  16  79 NW13      29.90R WCI   9
$$

TNZ008-025-027-028-033-062-065-066-091300-
NORTH MIDDLE TENNESSEE

CITY           SKY/WX    TMP DP  RH WIND       PRES   REMARKS
NASHVILLE      FLURRIES  26  19  74 N5        29.88R WCI  20
CLARKSVILLE    LGT SNOW  24  18  77 NW8       29.88R WCI  15
SMYRNA         FLURRIES  26  21  81 N7        29.89R WCI  18
COOKEVILLE     CLOUDY    25  18  74 VRB5      29.82S WCI  19
CROSSVILLE     FLURRIES  20  14  77 NW6       29.78R WCI  12
$$

TNZ061-075-076-078-094-096-097-091300-
SOUTH MIDDLE TENNESSEE

CITY           SKY/WX    TMP DP  RH WIND       PRES   REMARKS
FAYETTEVILLE   CLOUDY    28  23  80 CALM      29.86R
TULLAHOMA      CLOUDY    25  25 100 CALM      29.85R
WINCHESTER     CLOUDY    25  21  86 N5        29.85S WCI  19
MCMINNVILLE    CLOUDY    25  19  80 CALM      29.83F
COLUMBIA       CLOUDY    27  25  93 W6        29.86R WCI  20
SHELBYVILLE    CLOUDY    28  25  86 SW3       29.87S
$$

TNZ017-018-042-046-047-091300-
NORTHEAST TENNESSEE

CITY           SKY/WX    TMP DP  RH WIND       PRES   REMARKS
TRI CITIES     LGT SNOW  26  23  88 S6        29.71R FOG     WCI  19
$$

TNZ012-013-036-069-073-074-091300-
CENTRAL EAST TENNESSEE

CITY           SKY/WX    TMP DP  RH WIND       PRES   REMARKS
KNOXVILLE      CLOUDY    27  14  58 W14       29.81R WCI  16
OAK RIDGE      CLOUDY    26  15  63 W10       29.83R WCI  16
GATLINBURG     CLOUDY    27  18  69 SW8       29.78S WCI  18
MORRISTOWN     CLOUDY    27  21  80 W10       29.75R WCI  17
$$

TNZ083-085-099-091300-
SOUTHEAST TENNESSEE

CITY           SKY/WX    TMP DP  RH WIND       PRES   REMARKS
CHATTANOOGA    FLURRIES  29  21  72 N9        29.86R WCI  20
$$

SKY/WX REPORTED AS FAIR MEANS FEW OR NO CLOUDS BELOW
12 THOUSAND FEET.




USA.gov is the U.S. government's official web portal to all federal, state and local government web resources and services.